Regional Weather Roundup
Issued by NWS

Home | Current Version | Previous Version | Text Only | Print | Product List | Glossary On
Versions: 1 2 3 4 5 6 7 8 9 10 11 12 13 14 15 16 17 18 19 20 21 22 23 24 25 26 27 28 29 30 31 32 33 34 35 36 37 38 39 40 41 42 43 44 45 46 47 48 49 50
000
ASPQ40 PGUM 291112
RWRPQ
WEATHER ROUNDUP FOR THE MARIANAS AND MICRONESIA
NATIONAL WEATHER SERVICE TIYAN GU
900 PM CHST MON DEC 29 2014

GUZ001>004-291200-
MARIANA ISLANDS-

CITY           SKY/WX    TMP DP  RH WIND       PRES   REMARKS
GUAM AIRPORT   PTCLDY    81  75  83 NE6       29.86R
ANDERSEN AFB   PTCLDY    79  75  89 E10       29.87R
ROTA AIRPORT   NOT AVBL
TINIAN AP      NOT AVBL
SAIPAN AP      CLOUDY    79  73  83 VRB5      29.87R

$$

PMZ161-291200-
REPUBLIC OF PALAU-

CITY           SKY/WX    TMP DP  RH WIND       PRES   REMARKS
KOROR AP       MOCLDY    82  77  83 E7        29.80R HX  91
KOROR WSO      MOCLDY    82  77  83 E5        29.79R HX  91

$$

PMZ171>174-291200-
FEDERATED STATES OF MICRONESIA-

CITY           SKY/WX    TMP DP  RH WIND       PRES   REMARKS
YAP AIRPORT    MOCLDY    81  75  83 VRB6      29.80R
CHUUK AP       CLOUDY    82  77  83 NE9       29.75S HX  91
POHNPEI AP     NOT AVBL
POHNPEI WSO    MOCLDY    82  77  83 NE7       29.79S HX  91
KOSRAE AP      NOT AVBL

$$

PMZ181-291200-
REPUBLIC OF THE MARSHALL ISLANDS-

CITY           SKY/WX    TMP DP  RH WIND       PRES   REMARKS
KWAJALEIN AP   PTCLDY    82  68  61 NE22      29.81S
MAJURO AP      NOT AVBL
MAJURO WSO     PTCLDY    82  73  74 NE20      29.77S

$$



USA.gov is the U.S. government's official web portal to all federal, state and local government web resources and services.